Location: Unspecified
(50.7693°N, 0.0000°E)
Time: 00:25:31
(UTC+00:00)

Transit 4A - Pass Details

Date: 30 June 2019
Orbit: 862 x 982 km, 66.8° (Epoch: 20 July)

Event Time Altitude Azimuth Distance (km) Brightness Sun altitude
Rises 13:54:14 0° 322° (NW) 3,696 11.0 55.1°
Reaches altitude 10° 13:56:54 10° 326° (NNW) 2,741 10.4 54.8°
Maximum altitude 14:03:14 57° 45° (NE) 1,130 8.8 54.0°
Drops below altitude 10° 14:09:23 10° 124° (SE) 2,673 10.3 53.2°
Sets 14:11:57 0° 129° (SE) 3,598 10.9 52.9°
